This demonstration page uses our WeatherBlox Daily Observations layout. Learn more.

Left ArrowRight Arrow

39.12711, -84.51439

Hourly Observations for May 19, 2016

Temp ( °F °C ) Dew Point ( °F °C ) Humidity (%) Winds ( mph kmh ) Pressure ( in mb ) Visibility ( mi km ) Precip ( " mm )
12:53 am 00:53 Clear 49 9.4 46 7.8 90 90 NE 6 9 30.16 1022 10 16 0.00 0.00
1:53 am 01:53 Clear 48 8.9 45 7.2 89 89 Calm 30.17 1022 10 16 0.00 0.00
2:53 am 02:53 Clear 46 7.8 45 7.2 96 96 Calm 30.16 1021 10 16 0.00 0.00
3:53 am 03:53 Clear 44 6.7 44 6.7 100 100 Calm 30.16 1021 8 13 0.00 0.00
4:53 am 04:53 Clear 44 6.7 44 6.7 100 100 Calm 30.16 1022 10 16 0.00 0.00
5:53 am 05:53 Cloudy 45 7.2 44 6.7 97 97 Calm 30.16 1022 10 16 0.00 0.00
6:53 am 06:53 Mostly Sunny 44 6.7 44 6.7 100 100 Calm 30.17 1022 10 16 0.00 0.00
7:53 am 07:53 Mostly Sunny 48 8.9 47 8.3 96 96 Calm 30.19 1023 10 16 0.00 0.00
8:53 am 08:53 Mostly Sunny 54 12.2 44 6.7 69 69 Calm 30.20 1023 10 16 0.00 0.00
9:53 am 09:53 Mostly Sunny 58 14.4 44 6.7 60 60 ENE 5 7 30.21 1023 10 16 0.00 0.00
10:53 am 10:53 Mostly Sunny 62 16.7 46 7.8 56 56 E 6 9 30.20 1023 10 16 0.00 0.00
11:53 am 11:53 Mostly Sunny 65 18.3 46 7.8 51 51 NE 8 13 30.19 1023 10 16 0.00 0.00
12:53 pm 12:53 Sunny 67 19.4 47 8.3 49 49 undefined N/A 30.18 1022 10 16 0.00 0.00
1:00 pm 13:00 Mostly Cloudy 68 20 46 8 46 46 ENE 6 9 30.15 1021 10 16 0.00 0.00
1:53 pm 13:53 Mostly Cloudy 68 20 45 7.2 44 44 VRB 7 11 30.17 1022 10 16 0.00 0.00
2:53 pm 14:53 Partly Cloudy 70 21.1 44 6.7 39 39 NNE 7 11 30.16 1021 10 16 0.00 0.00
3:53 pm 15:53 Sunny 70 21.1 45 7.2 41 41 VRB 7 11 30.13 1020 10 16 0.00 0.00
4:53 pm 16:53 Sunny 70 21.1 44 6.7 39 39 VRB 6 9 30.14 1021 10 16 0.00 0.00
5:53 pm 17:53 Mostly Sunny 70 21.1 43 6.1 38 38 VRB 6 9 30.14 1021 10 16 0.00 0.00
6:53 pm 18:53 Sunny 69 20.6 42 5.6 38 38 ENE 7 11 30.13 1020 10 16 0.00 0.00
7:53 pm 19:53 Sunny 66 18.9 41 5 40 40 ENE 7 11 30.13 1020 10 16 0.00 0.00
8:53 pm 20:53 Clear 59 15 46 7.8 62 62 Calm 30.14 1021 10 16 0.00 0.00
9:53 pm 21:53 Clear 53 11.7 45 7.2 74 74 NE 5 7 30.15 1021 10 16 0.00 0.00
10:53 pm 22:53 Clear 53 11.7 47 8.3 80 80 NE 3 6 30.15 1021 10 16 0.00 0.00
11:53 pm 23:53 Clear 50 10 47 8.3 89 89 Calm 30.16 1021 10 16 0.00 0.00

Powered by AerisWeather